Погода в Амгуэме

Россия / Чукотский автономный округ     67°02′40″N   178°52′46″W
темп.,
°C
ветер,
м/с
пор.,
м/с
влажн.,
%
обл.,
%
осадки,
мм/ч
давл.,
гПа
погр.,
м
26 октября, вт
вт2600:00−25юз1110082 0.1 10059
03:00−26юз2210089 0.0 100411
06:00−28юз2210075 0.1 100511
09:00−28юз2210057 0.0 100515
12:00−25юз229957 0.0 100439
15:00−24юз229896 0.0 100451
18:00−22юз229796 0.0 100459
21:00−21юз229699 0.0 100457
27 октября, ср
ср2700:00−20юз229896 0.1 100545
03:00−19юз229897 0.1 100535
06:00−19юз2297100 0.2 100540
09:00−18юз1197100 0.1 100658
12:00−16юз1195100 0.3 100779
15:00−17юз1197100 0.1 100718
18:00−17юз2297100 0.2 100925
21:00−17юз2297100 0.1 101021
28 октября, чт
чт2800:00−17юз2298100 0.2 101126
03:00−17юз2297100 0.1 101234
06:00−18юз2298100 0.3 101331
09:00−18юз2296100 0.1 101457
12:00−17юз2293100 0.1 101486
15:00−19юз229595 0.0 101416
18:00−21юз229792 0.0 101512
21:00−22ююз229994 0.0 101513
29 октября, пт
пт2900:00−24ююз229992 0.0 101510
03:00−26юз2210074 0.0 101611
06:00−26юз229984 0.0 101612
09:00−27юз229957 0.0 101611
12:00−26юз119856 0.0 101611
15:00−28юз119934 0.0 10169
18:00−29юз229931 0.0 10169
21:00−30юз1110051 0.0 10169
30 октября, сб
сб3000:00−31юз1110067 0.0 10169
03:00−31юз2110075 0.0 101610
06:00−31юз1110075 0.0 101610
09:00−31юз1110076 0.0 101610
12:00−28юз1110080 0.0 101520
15:00−28ююв0010087 0.0 10159
18:00−28ююз1110058 0.0 101513
21:00−29юз11100100 0.0 10159